Simultaneous Nadir Overpasses (SNOs) Predictions

Prediction of SNOs between NOAA-20 and AQUA Satellite Orbit:

Table of predicted SNOs for the next 14.0 days since TLE Epoch: 8/2/2025
Index Date (NOAA-20) Time (NOAA-20) Lat,Lon (NOAA-20) SZA (NOAA-20 ) Date (AQUA) Time (AQUA) Lat,Lon (AQUA) SZA (AQUA ) Distance(km) Time Diff (sec)
1 08/02/2025 14:26:28 -81.28, 78.51 110.91 08/02/2025 14:27:02 -81.29, 78.40 110.91 1.98 34
2 08/02/2025 15:17:13 81.28,-114.12 69.10 08/02/2025 15:16:20 81.29,-114.04 69.12 1.35 53
3 08/04/2025 23:57:24 -81.28, -64.39 110.26 08/04/2025 23:57:52 -81.29, -64.29 110.29 1.70 28
4 08/05/2025 00:48:08 81.28, 103.35 69.69 08/05/2025 00:47:10 81.28, 103.25 69.74 1.66 58
5 08/07/2025 09:28:19 -81.28, 153.09 109.65 08/07/2025 09:28:41 -81.29, 153.15 109.66 1.59 22
6 08/07/2025 10:19:03 81.28, -39.22 70.31 08/07/2025 10:17:59 81.29, -39.33 70.37 2.02 64
7 08/09/2025 18:59:14 -81.28, 10.53 109.00 08/09/2025 18:59:30 -81.28, 10.34 108.98 3.25 16
8 08/09/2025 19:49:59 81.28, 177.80 71.02 08/09/2025 19:48:48 81.28, 177.84 71.05 0.87 71
9 08/12/2025 04:30:10 -81.28,-132.44 108.28 08/12/2025 04:30:18 -81.28,-132.34 108.30 1.72 8



Historial Predications of SNOs between NOAA-20 and AQUA
